Regional Weather Roundup
Issued by NWS Charleston, SC

Current Version | Previous Version | Text Only | Print | Product List | Glossary On
Versions: 1 2 3 4 5 6 7 8 9 10 11 12 13 14 15 16 17 18 19 20 21 22 23 24 25 26 27 28 29 30 31 32 33 34 35 36 37 38 39 40 41 42 43 44 45 46 47 48 49 50
000
ASUS42 KCHS 110510
RWRCHS
REGIONAL WEATHER ROUNDUP
NATIONAL WEATHER SERVICE CHARLESTON SC
100 AM EDT FRI JUL 11 2014

NOTE: "FAIR" INDICATES FEW OR NO CLOUDS BELOW 12,000 FEET WITH NO
SIGNIFICANT WEATHER AND/OR OBSTRUCTIONS TO VISIBILITY.

NOT ALL STATIONS ARE QUALITY CONTROLLED BY THE NATIONAL
WEATHER SERVICE. USE DATA WITH CAUTION...ESPECIALLY
DEWPOINT OBSERVATIONS.

SCZ027-030-031-034>040-042>050-110600-
...SOUTH CAROLINA...

CITY           SKY/WX    TMP DP  RH WIND       PRES   REMARKS
N CHARLESTON   CLOUDY    78  69  73 NW6       30.12R
WATERFRONT PRK   N/A     81 N/A N/A SW3         N/A
FORT JOHNSON   NOT AVBL
MOUNT PLEASANT FAIR      81  70  69 CALM      30.12R
JOHNS ISLAND   CLEAR     79  66  65 CALM      30.13R
PINOPOLIS        N/A     79  70  73 W3        30.04R
MONCKS CORNER    N/A     77  73  88 CALM      30.13R
SUMMERVILLE    FAIR      73  73 100 CALM      30.13R
BEAUFORT MCAS  MOCLDY    76  71  85 CALM      30.12R
BEAUFORT ARPT  FAIR      77  73  88 SW3       30.11R
HILTON HEAD IS MOCLDY    75  72  88 CALM      30.13R
GEORGETOWN     NOT AVBL
WALTERBORO     MOCLDY    73  73 100 CALM      30.12R
ORANGEBURG     CLOUDY    74  70  87 S5        30.12S
BARNWELL       FAIR      73  73 100 CALM      30.11S
AIKEN          FAIR      73  73 100 CALM      30.13S
MANNING        CLOUDY    73 N/A N/A E5        30.13R
KINGSTREE      NOT AVBL
COLUMBIA       MOCLDY    75  70  84 NE3       30.09F
SUMTER         MOCLDY    73  72  94 N2        30.09F
FLORENCE       CLOUDY    70  67  90 SE6       30.10F
MYRTLE BEACH   CLOUDY    72  66  83 NW13G18   30.15R
N MYRTLE BEACH LGT RAIN  73  70  90 W13G18    30.14R

$$

GAZ063-065-086>088-099>101-113>116-118-119-134-136>141-150-110600-
...GEORGIA...

CITY           SKY/WX    TMP DP  RH WIND       PRES   REMARKS
SAVANNAH ARPT  CLOUDY    75  72  90 CALM      30.11R
HUNTER AAF     CLOUDY    74  74  98 SW2       30.10R
FORT STEWART   CLOUDY    73  72  95 SE1       30.10R
STATESBORO     NOT AVBL
SYLVANIA       MOCLDY    73  73 100 CALM      30.12R FOG
CLAXTON        FAIR     N/A N/A N/A CALM      30.11R
THOMSON        PTCLDY    75  75 100 CALM      30.15S
AUGUSTA-BUSH   PTCLDY    72  70  93 CALM      30.10R
AUGUSTA-DANIEL PTCLDY    77  71  82 CALM      30.11R
SWAINSBORO     FAIR      75  75 100 CALM      30.12R
VIDALIA        RAIN      73  72  94 CALM      30.12R
ALMA           MOCLDY    72  70  93 CALM      30.10F
WAYCROSS       CLOUDY    78  75  90 CALM      30.10F
JESUP          NOT AVBL
BRUNSWICK      CLOUDY    75  72  88 CALM      30.12R
SAINT SIMONS   CLOUDY    78  74  87 S5        30.11R

$$

SCZ027-028-034-036>038-045-046-048>050-GAZ119-141-110600-
...LAKE AND SUPPLEMENTAL COASTAL OBSERVATIONS...

STATION/POSITION TIME  TEMP    WIND        PRES    WAVE   SWELL
                       AIR SEA DIR/SP/G            HT/PER HT/PER/DIR
                 (UTC) (F)     (DEG/KT/KT) (MB)    (FT/S) (FT/S/D)
UPR LAKE MARION  NOT AVBL
WINYAH BAY       0400   81     210/  9     1019.0S
LAKE MURRAY      0400   77      90/  3/  8 1019.0S
ACE BASIN NERRS  0400   78     240/  1     1019.0S
FORT PULASKI     0500   76 78  200/  3/  5   N/A
SAPELO ISLAND    NOT AVBL

$$

ANZ835-935-AMZ111-154-330-350-352-354-374-450-454-472-110600-
...C-MAN AND BUOY OBSERVATIONS...

STATION/POSITION TIME  TEMP    WIND        PRES    WAVE   SWELL
                       AIR SEA DIR/SP/G            HT/PER HT/PER/DIR
                 (UTC) (F)     (DEG/KT/KT) (MB)    (FT/S) (FT/S/D)
FOLLY BEACH CMAN 0400   79     240/  6/ 10 1019.8R
BUOY 41004       0500   80 82  200/ 14/ 16 1019.1R   4/ 5   2/ 8
BUOY 41008       0500   83 84  200/ 12/ 16 1019.4R   3/ 4   2/110/ 9
5E ST. MARYS GA  0400      83                N/A     2/ 9
FRYING PAN BUOY  NOT AVBL
BUOY 41025       0500          VRB 16/ 19  1019.9S   4/ 6   2/ 80/ 9
CAPE LOOKOUT NC  0400   77     320/  9/ 11 1020.2R
BUOY 41002       0436   81 81  190/ 14/ 16 1022.5F   3/10   2/100/10
BUOY 41010       0500   81 83  130/  8/ 10 1021.1S   2/ 8   2/130/ 8
BUOY 41012       NOT AVBL
ST AUGUSTINE FL  0500   76     210/  5/  6 1020.6R
CAPERS NEARSHORE 0400   82     250/ 14/ 17   N/A
FRIPP NEARSHORE  0400   80     270/ 10/ 12   N/A


$$



USA.gov is the U.S. government's official web portal to all federal, state and local government web resources and services.